Bar Harbor, ME

11:10 AM EST on December 10, 2019 (GMT -0500)
Hancock County-Bar Harbor

Weather History for KBHB - October, 2019

Change the Weather History Date:

Thursday, October 17, 2019

  Actual Average Record
Temperature  
Mean Temperature 50 °F -  
Max Temperature 55 °F 55 °F 75 °F (1963)
Min Temperature 46 °F 41 °F 30 °F (1979)
Degree Days  
Heating Degree Days 14    
Moisture  
Dew Point 49 °F    
Average Humidity 90    
Maximum Humidity 100    
Minimum Humidity 77    
Precipitation  
Precipitation 1.65 in - - ()
Sea Level Pressure  
Sea Level Pressure 29.16 in    
Wind  
Wind Speed 17 mph (ESE)    
Max Wind Speed 28 mph    
Max Gust Speed 46 mph    
Visibility 7 miles    
Events Rain    
Averages and records for this station are not official NWS values.
T = Trace of Precipitation, MM = Missing Value Source: NWS Daily Summary

Daily Weather History Graph

Daily Weather History Graph

Search for Another Location

Airport or City:

Astronomy

Oct. 17, 2019 Rise Set
Actual Time 6:50 AM EDT 5:46 PM EDT
Civil Twilight 6:21 AM EDT 6:15 PM EDT
Nautical Twilight 5:47 AM EDT 6:49 PM EDT
Astronomical Twilight 5:13 AM EDT 7:22 PM EDT
Moon 8:08 PM EDT (10/17) 10:25 AM EDT (10/17)
Length of Visible Light 11h 54m
Length of Day
10h 55m
Waning Gibbous, 87% of the Moon is Illuminated
Oct 17
Waning Gibbous
Oct 21
Last Quarter
Oct 27
New
Nov 4
First Quarter
Nov 12
Full

Hourly Weather History & Observations

Time (EDT) Temp. Windchill Dew Point Humidity Pressure Visibility Wind Dir Wind Speed Gust Speed Precip Events Conditions
12:56 AM 53.1 °F - 48.0 °F 83% 29.69 in 10.0 mi East 17.3 mph 25.3 mph N/A   Overcast
1:56 AM 53.1 °F - 48.0 °F 83% 29.65 in 10.0 mi ESE 13.8 mph 23.0 mph N/A   Overcast
2:56 AM 53.1 °F - 48.0 °F 83% 29.55 in 10.0 mi East 18.4 mph 27.6 mph N/A   Overcast
3:15 AM 53.6 °F - 48.2 °F 82% 29.49 in 10.0 mi East 21.9 mph 31.1 mph N/A   Overcast
3:56 AM 52.0 °F - 48.9 °F 89% 29.44 in 5.0 mi ENE 19.6 mph 28.8 mph 0.03 in Rain Rain
4:46 AM 51.8 °F - 50.0 °F 94% 29.36 in 6.0 mi ENE 18.4 mph 31.1 mph 0.21 in Rain Rain
4:56 AM 51.1 °F - 50.0 °F 96% 29.33 in 5.0 mi ENE 20.7 mph 40.3 mph 0.24 in Rain Rain
5:56 AM 51.1 °F - 50.0 °F 96% 29.20 in 3.0 mi ENE 27.6 mph 38.0 mph 0.20 in Rain Heavy Rain
6:10 AM 51.8 °F - 50.0 °F 94% 29.17 in 2.0 mi East 23.0 mph 46.0 mph 0.06 in Rain Heavy Rain
6:30 AM 51.8 °F - 50.0 °F 94% 29.16 in 4.0 mi East 27.6 mph 41.4 mph 0.16 in Rain Light Rain
6:56 AM 54.0 °F - 52.0 °F 93% 29.13 in 2.5 mi East 27.6 mph 42.6 mph 0.29 in Rain Heavy Rain
7:24 AM 53.6 °F - 53.6 °F 100% 29.11 in 3.0 mi ESE 20.7 mph 40.3 mph 0.12 in Rain Light Rain
7:34 AM 53.6 °F - 53.6 °F 100% 29.11 in 1.8 mi East 25.3 mph 40.3 mph 0.16 in Rain Heavy Rain
7:56 AM 54.0 °F - 53.1 °F 97% 29.09 in 2.5 mi East 21.9 mph 35.7 mph 0.25 in Rain Light Rain
8:15 AM 53.6 °F - 53.6 °F 100% 29.03 in 1.5 mi East 21.9 mph 32.2 mph 0.08 in Rain Heavy Rain
8:37 AM 53.6 °F - 53.6 °F 100% 29.05 in 2.5 mi ESE 16.1 mph 29.9 mph 0.18 in Rain Rain
8:56 AM 54.0 °F - 53.1 °F 97% 29.03 in 2.5 mi East 17.3 mph 31.1 mph 0.26 in Rain Light Rain
9:09 AM 53.6 °F - 53.6 °F 100% 29.01 in 6.0 mi East 16.1 mph 33.4 mph 0.05 in Rain Light Rain
9:56 AM 55.0 °F - 54.0 °F 96% 29.01 in 2.5 mi South 16.1 mph 32.2 mph 0.22 in Rain Light Rain
10:06 AM 55.4 °F - 53.6 °F 94% 29.02 in 3.0 mi South 20.7 mph 28.8 mph 0.03 in Rain Light Rain
10:56 AM 54.0 °F - 52.0 °F 93% 29.05 in 6.0 mi SSE 18.4 mph 21.9 mph 0.14 in Rain Light Rain
11:56 AM 53.1 °F - 50.0 °F 89% 29.05 in 10.0 mi South 20.7 mph 26.5 mph 0.00 in   Overcast
12:56 PM 53.1 °F - 48.0 °F 83% 29.06 in 10.0 mi South 13.8 mph - 0.00 in   Overcast
1:23 PM 53.6 °F - 46.4 °F 77% 29.06 in 10.0 mi South 17.3 mph 25.3 mph N/A   Overcast
1:56 PM 52.0 °F - 46.9 °F 83% 29.07 in 10.0 mi South 12.7 mph - N/A   Overcast
2:56 PM 51.1 °F - 48.0 °F 89% 29.07 in 7.0 mi SSW 17.3 mph - 0.01 in Rain Light Rain
3:26 PM 51.8 °F - 46.4 °F 82% 29.06 in 10.0 mi South 10.4 mph - 0.00 in   Overcast
3:56 PM 52.0 °F - 46.9 °F 83% 29.06 in 10.0 mi SSE 10.4 mph - 0.00 in   Overcast
4:56 PM 52.0 °F - 45.0 °F 77% 29.06 in 10.0 mi South 11.5 mph - N/A   Scattered Clouds
5:56 PM 50.0 °F - 45.0 °F 83% 29.07 in 10.0 mi SSE 8.1 mph - 0.00 in   Mostly Cloudy
6:56 PM 50.0 °F - 46.0 °F 86% 29.07 in 10.0 mi SE 3.5 mph - N/A   Overcast
7:34 PM 50.0 °F - 44.6 °F 82% 29.07 in 10.0 mi East 4.6 mph - 0.00 in Rain Light Rain
7:56 PM 48.9 °F - 45.0 °F 86% 29.07 in 10.0 mi ESE 4.6 mph - 0.00 in   Overcast
8:56 PM 48.9 °F - 45.0 °F 86% 29.09 in 10.0 mi Calm Calm - 0.00 in Rain Light Rain
9:56 PM 46.0 °F 43.9 °F 46.0 °F 100% 29.11 in 10.0 mi NNW 4.6 mph - 0.01 in   Mostly Cloudy
10:56 PM 46.9 °F - 46.0 °F 97% 29.14 in 10.0 mi NW 5.8 mph - N/A   Overcast
11:56 PM 46.9 °F - 46.0 °F 97% 29.17 in 10.0 mi WNW 4.6 mph - N/A   Overcast